N017SB KSJC-KSAC

Flight info

Callsign N017SB
Flight time 0h 37m
Altitude 5000
Route SUNOL V334 SAC
Aircraft C207/L-DOV/C

Departure

Time 2026-04-16 02:36
Airport Norman Y. Mineta San Jose International Airport (KSJC)

Arrival

Time 2026-04-16 03:13
Airport Sacramento Executive Airport (KSAC)
Time Latitude Longitude Altitude Speed Heading
2026-04-16 02:35 37.48123 -121.90519 4872 ft 101 kts 20°
2026-04-16 02:36 37.48749 -121.90054 4950 ft 108 kts 25°
2026-04-16 02:36 37.49398 -121.89533 4982 ft 112 kts 26°
2026-04-16 02:36 37.50075 -121.89012 4992 ft 116 kts 23°
2026-04-16 02:36 37.50771 -121.88497 5001 ft 114 kts 25°
2026-04-16 02:37 37.51462 -121.87964 4975 ft 124 kts 25°
2026-04-16 02:37 37.52230 -121.87375 4977 ft 133 kts 25°
2026-04-16 02:37 37.53045 -121.86761 4995 ft 139 kts 24°
2026-04-16 02:37 37.53891 -121.86113 4987 ft 144 kts 25°
2026-04-16 02:38 37.54747 -121.85448 4992 ft 146 kts 25°
2026-04-16 02:38 37.55607 -121.84801 4983 ft 147 kts 26°
2026-04-16 02:38 37.56498 -121.84128 4977 ft 147 kts 25°
2026-04-16 02:38 37.57369 -121.83450 4975 ft 147 kts 25°
2026-04-16 02:39 37.58238 -121.82804 4975 ft 147 kts 26°
2026-04-16 02:39 37.59108 -121.82137 4973 ft 146 kts 26°
2026-04-16 02:39 37.59960 -121.81453 4976 ft 147 kts 31°
2026-04-16 02:39 37.60725 -121.80577 4974 ft 149 kts 40°
2026-04-16 02:40 37.61422 -121.79611 4971 ft 150 kts 46°
2026-04-16 02:40 37.62027 -121.78517 4989 ft 153 kts 47°
2026-04-16 02:40 37.62667 -121.77451 4991 ft 152 kts 44°
2026-04-16 02:40 37.63306 -121.76371 4980 ft 154 kts 51°
2026-04-16 02:41 37.63916 -121.75270 4976 ft 152 kts 44°
2026-04-16 02:41 37.64562 -121.74218 4976 ft 151 kts 43°
2026-04-16 02:41 37.65197 -121.73158 4979 ft 152 kts 49°
2026-04-16 02:41 37.65910 -121.72217 4975 ft 144 kts 18°
2026-04-16 02:42 37.66853 -121.71929 4982 ft 140 kts
2026-04-16 02:42 37.67805 -121.71665 4983 ft 141 kts
2026-04-16 02:42 37.68767 -121.71399 4982 ft 141 kts
2026-04-16 02:42 37.69727 -121.71157 4981 ft 141 kts
2026-04-16 02:43 37.70689 -121.70921 4979 ft 142 kts
2026-04-16 02:43 37.71649 -121.70637 4978 ft 141 kts
2026-04-16 02:43 37.72604 -121.70382 4976 ft 140 kts
2026-04-16 02:43 37.73563 -121.70161 4975 ft 141 kts
2026-04-16 02:44 37.74524 -121.69868 4984 ft 142 kts
2026-04-16 02:44 37.75492 -121.69626 4984 ft 142 kts
2026-04-16 02:44 37.76466 -121.69391 4970 ft 142 kts
2026-04-16 02:44 37.77432 -121.69112 4966 ft 142 kts
2026-04-16 02:45 37.78387 -121.68846 4975 ft 140 kts
2026-04-16 02:45 37.79348 -121.68619 4981 ft 141 kts
2026-04-16 02:45 37.80309 -121.68342 4975 ft 141 kts
2026-04-16 02:45 37.81265 -121.68085 4970 ft 140 kts
2026-04-16 02:46 37.82219 -121.67870 4969 ft 140 kts
2026-04-16 02:46 37.83168 -121.67585 4973 ft 140 kts
2026-04-16 02:46 37.84123 -121.67326 4964 ft 139 kts
2026-04-16 02:46 37.85071 -121.67091 4961 ft 139 kts
2026-04-16 02:47 37.86022 -121.66838 4966 ft 140 kts
2026-04-16 02:47 37.86972 -121.66572 4970 ft 140 kts
2026-04-16 02:47 37.87606 -121.66429 4968 ft 140 kts
2026-04-16 02:47 37.88565 -121.66164 4970 ft 142 kts
2026-04-16 02:48 37.89524 -121.65886 4960 ft 141 kts
2026-04-16 02:48 37.90483 -121.65657 4963 ft 140 kts
2026-04-16 02:48 37.91448 -121.65412 4965 ft 142 kts
2026-04-16 02:48 37.92410 -121.65127 4966 ft 142 kts
2026-04-16 02:49 37.93375 -121.64878 4963 ft 141 kts
2026-04-16 02:49 37.94299 -121.64644 4963 ft 143 kts
2026-04-16 02:49 37.95266 -121.64359 4957 ft 142 kts
2026-04-16 02:49 37.96231 -121.64123 4961 ft 141 kts
2026-04-16 02:50 37.97190 -121.63877 4988 ft 141 kts
2026-04-16 02:50 37.98145 -121.63604 5009 ft 140 kts
2026-04-16 02:50 37.99095 -121.63355 5016 ft 139 kts
2026-04-16 02:50 38.00038 -121.63117 5010 ft 141 kts
2026-04-16 02:51 38.00990 -121.62829 5013 ft 141 kts
2026-04-16 02:51 38.01953 -121.62597 5016 ft 141 kts
2026-04-16 02:51 38.02913 -121.62350 5019 ft 142 kts
2026-04-16 02:51 38.03874 -121.62064 5016 ft 142 kts
2026-04-16 02:52 38.04832 -121.61813 5019 ft 140 kts
2026-04-16 02:52 38.05796 -121.61578 5025 ft 142 kts
2026-04-16 02:52 38.06764 -121.61298 5021 ft 143 kts
2026-04-16 02:52 38.07733 -121.61041 5018 ft 142 kts
2026-04-16 02:53 38.08708 -121.60806 5024 ft 144 kts
2026-04-16 02:53 38.09692 -121.60517 5020 ft 146 kts
2026-04-16 02:53 38.10682 -121.60242 5019 ft 145 kts
2026-04-16 02:53 38.11676 -121.60003 5018 ft 146 kts
2026-04-16 02:54 38.12668 -121.59711 5014 ft 146 kts
2026-04-16 02:54 38.13661 -121.59465 5007 ft 145 kts
2026-04-16 02:54 38.14648 -121.59217 5008 ft 145 kts 10°
2026-04-16 02:54 38.15631 -121.58912 5014 ft 145 kts 10°
2026-04-16 02:55 38.16617 -121.58657 5016 ft 144 kts
2026-04-16 02:55 38.17605 -121.58427 5014 ft 145 kts
2026-04-16 02:55 38.18591 -121.58139 5023 ft 145 kts
2026-04-16 02:55 38.19580 -121.57865 5019 ft 145 kts
2026-04-16 02:56 38.20572 -121.57617 5017 ft 146 kts
2026-04-16 02:56 38.21566 -121.57331 5018 ft 146 kts
2026-04-16 02:56 38.22562 -121.57071 5011 ft 146 kts
2026-04-16 02:56 38.23557 -121.56825 5006 ft 146 kts
2026-04-16 02:57 38.24549 -121.56541 5005 ft 146 kts
2026-04-16 02:57 38.25524 -121.56274 5002 ft 145 kts
2026-04-16 02:57 38.26513 -121.56020 5006 ft 146 kts
2026-04-16 02:57 38.27504 -121.55738 5008 ft 146 kts
2026-04-16 02:58 38.28500 -121.55484 5006 ft 145 kts
2026-04-16 02:58 38.29490 -121.55225 5002 ft 146 kts
2026-04-16 02:58 38.30482 -121.54932 5004 ft 146 kts
2026-04-16 02:58 38.31473 -121.54680 5005 ft 145 kts
2026-04-16 02:59 38.32461 -121.54423 5004 ft 145 kts
2026-04-16 02:59 38.33406 -121.53956 5009 ft 150 kts 30°
2026-04-16 02:59 38.34248 -121.53161 5010 ft 151 kts 30°
2026-04-16 02:59 38.35091 -121.52360 5008 ft 152 kts 34°
2026-04-16 03:00 38.35936 -121.51551 5001 ft 152 kts 32°
2026-04-16 03:00 38.36751 -121.50768 4989 ft 131 kts 33°
2026-04-16 03:00 38.37506 -121.50033 4997 ft 141 kts 34°
2026-04-16 03:00 38.38327 -121.49236 4847 ft 155 kts 33°
2026-04-16 03:01 38.39229 -121.48394 4570 ft 165 kts 33°
2026-04-16 03:01 38.40158 -121.47539 4268 ft 165 kts 32°
2026-04-16 03:01 38.41079 -121.46669 3958 ft 165 kts 33°
2026-04-16 03:01 38.42003 -121.45807 3653 ft 164 kts 34°
2026-04-16 03:02 38.42931 -121.44956 3358 ft 165 kts 34°
2026-04-16 03:02 38.43862 -121.44095 3052 ft 166 kts 33°
2026-04-16 03:02 38.44795 -121.43237 2743 ft 166 kts 33°
2026-04-16 03:02 38.45733 -121.42370 2432 ft 167 kts 33°
2026-04-16 03:03 38.46667 -121.41499 2201 ft 164 kts 33°
2026-04-16 03:03 38.47589 -121.40648 2095 ft 157 kts 32°
2026-04-16 03:03 38.48427 -121.39860 2042 ft 143 kts 34°
2026-04-16 03:03 38.49200 -121.39122 2018 ft 135 kts 33°
2026-04-16 03:04 38.49931 -121.38411 2012 ft 130 kts 33°
2026-04-16 03:04 38.50642 -121.37708 1997 ft 132 kts 33°
2026-04-16 03:04 38.51379 -121.36988 1998 ft 135 kts 33°
2026-04-16 03:04 38.52115 -121.36258 1990 ft 134 kts 33°
2026-04-16 03:05 38.52865 -121.35523 1994 ft 137 kts 33°
2026-04-16 03:05 38.53627 -121.34785 1996 ft 139 kts 32°
2026-04-16 03:05 38.54391 -121.34033 1992 ft 138 kts 33°
2026-04-16 03:05 38.55161 -121.33291 2003 ft 140 kts 33°
2026-04-16 03:06 38.55931 -121.32536 2002 ft 139 kts 33°
2026-04-16 03:06 38.56715 -121.31810 2006 ft 140 kts 33°
2026-04-16 03:06 38.58458 -121.31071 2002 ft 135 kts 329°
2026-04-16 03:07 38.59144 -121.31821 2006 ft 129 kts 307°
2026-04-16 03:07 38.59741 -121.32670 2000 ft 128 kts 305°
2026-04-16 03:07 38.60318 -121.33526 1999 ft 127 kts 304°
2026-04-16 03:07 38.60631 -121.34509 1992 ft 117 kts 257°
2026-04-16 03:08 38.60170 -121.35304 2002 ft 114 kts 219°
2026-04-16 03:08 38.59721 -121.36112 2007 ft 119 kts 258°
2026-04-16 03:08 38.59770 -121.37183 2008 ft 121 kts 266°
2026-04-16 03:08 38.59681 -121.38237 2000 ft 118 kts 244°
2026-04-16 03:09 38.59306 -121.39154 2000 ft 117 kts 247°
2026-04-16 03:09 38.59040 -121.40132 1997 ft 117 kts 250°
2026-04-16 03:09 38.58800 -121.41126 2002 ft 117 kts 251°
2026-04-16 03:09 38.58565 -121.42142 1897 ft 122 kts 249°
2026-04-16 03:10 38.58173 -121.43117 1796 ft 127 kts 233°
2026-04-16 03:10 38.57593 -121.43981 1610 ft 134 kts 224°
2026-04-16 03:10 38.56877 -121.44755 1443 ft 131 kts 219°
2026-04-16 03:10 38.56169 -121.45472 1155 ft 129 kts 214°
2026-04-16 03:11 38.55419 -121.46049 995 ft 126 kts 209°
2026-04-16 03:11 38.54654 -121.46641 876 ft 121 kts 214°
2026-04-16 03:11 38.54032 -121.47170 724 ft 92 kts 211°
2026-04-16 03:11 38.53550 -121.47555 587 ft 76 kts 210°
2026-04-16 03:12 38.53121 -121.47921 472 ft 73 kts 214°
2026-04-16 03:12 38.52665 -121.48315 375 ft 76 kts 209°
2026-04-16 03:12 38.52198 -121.48684 223 ft 79 kts 213°
2026-04-16 03:12 38.51744 -121.49051 53 ft 72 kts 212°
2026-04-16 03:13 38.51418 -121.49321 20 ft 42 kts 209°
2026-04-16 03:13 38.51244 -121.49459 18 ft 23 kts 213°
2026-04-16 03:13 38.51138 -121.49606 20 ft 23 kts 255°
2026-04-16 03:13 38.51137 -121.49687 21 ft 0 kts 273°
2026-04-16 03:15 38.51138 -121.49710 21 ft 9 kts 271°
2026-04-16 03:15 38.51161 -121.49775 22 ft 8 kts 20°
2026-04-16 03:16 38.51231 -121.49797 23 ft 8 kts 309°
2026-04-16 03:16 38.51243 -121.49799 23 ft 0 kts 33°